Theta_e
314 315 316 317 318 318 319 319 319 318 318 318 319 319 318 318 317 317 317 317 314 310 312 314 314 314 313 314 315 316 317 324 327 329 328 326 325 325 327 331 336 338 337 337 336 326 325
315 316 318 318 318 319 319 319 319 319 319 318 318 318 318 318 318 317 317 316 310 311 314 316 315 314 316 317 315 315 326 326 327 329 327 325 326 325 326 328 333 334 333 333 327 325 325
318 318 319 320 320 320 319 319 319 318 319 319 319 318 317 318 318 317 316 312 312 312 316 317 316 313 316 318 317 322 327 321 321 325 325 326 326 327 332 333 331 329 329 330 328 328 327
320 320 321 320 320 320 319 319 319 319 319 318 318 318 317 317 317 316 315 313 312 314 316 314 314 315 317 315 314 315 315 317 319 321 321 325 326 328 327 328 325 325 323 329 328 324 325
321 320 319 319 319 319 319 319 319 318 318 318 318 317 317 316 316 316 315 312 312 316 315 319 317 313 316 316 317 318 318 318 318 325 328 329 328 329 327 327 330 327 330 327 327 323 323
320 320 319 318 318 318 318 318 319 318 318 318 318 317 316 316 316 315 313 312 312 314 312 314 319 318 318 317 315 315 316 317 319 320 329 328 330 330 328 331 328 329 327 324 326 326 325
320 319 318 318 317 317 317 317 318 318 318 318 318 317 317 316 315 313 311 310 311 313 310 313 313 313 314 314 313 315 316 316 317 323 321 328 326 327 330 330 329 328 328 328 327 325 324
320 319 318 317 318 316 316 316 316 317 317 318 317 317 317 315 315 313 310 309 307 307 312 310 310 311 311 312 314 317 314 316 321 321 327 326 326 328 330 331 330 330 331 330 329 324 326
318 317 317 317 316 317 315 315 316 316 316 317 317 317 316 315 314 313 308 307 309 307 312 313 312 312 314 313 315 316 316 317 319 322 322 321 322 326 330 330 331 332 333 332 331 329 325
317 317 317 315 314 316 315 315 315 315 315 316 317 316 314 314 312 312 312 307 310 308 314 315 317 316 316 314 317 316 315 318 318 320 321 322 323 324 327 327 331 331 330 331 330 330 332
318 317 315 314 313 314 315 315 314 314 315 316 316 315 313 312 310 311 311 311 309 307 316 316 317 316 315 317 317 320 316 316 319 319 319 321 321 325 325 326 326 324 325 325 325 328 325
317 316 315 314 314 314 314 314 314 315 314 316 315 314 312 310 308 311 311 310 306 315 315 317 316 316 317 316 317 317 318 317 316 317 317 318 318 319 323 325 325 324 324 323 321 323 324
316 315 315 315 315 314 314 314 314 313 314 315 315 314 310 308 311 309 310 309 315 314 315 317 316 317 315 317 317 317 318 321 319 320 321 320 319 318 319 320 321 323 323 323 324 325 326
315 315 314 314 314 314 314 314 314 313 315 315 314 312 309 309 309 309 307 315 316 315 316 315 316 316 316 316 317 317 319 320 319 321 321 321 322 319 319 320 322 322 323 323 325 325 325
315 314 314 314 314 314 314 314 313 314 315 314 314 310 310 310 310 309 314 318 317 315 315 317 318 318 319 317 316 317 318 319 319 322 325 324 323 323 318 320 321 322 323 323 324 322 322
313 313 312 312 313 313 314 314 314 315 315 314 310 307 309 310 311 307 313 313 313 312 313 316 319 317 320 321 318 318 318 318 320 322 323 323 326 325 324 321 320 322 322 322 324 326 326
314 313 312 312 312 311 314 314 313 315 314 313 306 313 311 310 309 315 316 315 314 315 314 317 318 319 319 320 318 318 318 321 322 325 325 323 324 326 326 326 326 322 322 322 325 326 326
314 313 312 312 312 311 313 313 313 315 314 311 304 316 310 311 317 310 316 314 313 317 318 318 317 317 319 319 322 318 319 325 324 325 327 323 325 327 326 325 324 325 327 327 326 329 327
314 314 313 313 309 309 311 313 313 314 312 305 308 308 309 309 317 316 313 314 314 318 319 322 322 322 321 322 325 323 323 324 324 325 327 327 325 325 326 327 328 331 331 338 334 328 329
313 314 315 311 306 305 310 313 313 313 312 304 309 315 312 309 307 313 313 314 316 316 317 319 321 321 323 324 322 325 324 323 323 324 333 324 326 328 326 327 327 329 331 341 338 334 328
314 314 314 311 305 305 309 313 313 313 312 305 308 312 307 314 312 310 310 311 316 317 316 318 322 322 322 325 324 325 324 324 323 324 325 325 330 326 326 327 328 329 331 339 339 345 342
314 314 314 311 305 303 306 312 313 313 312 307 312 312 308 311 308 309 308 314 313 314 313 321 321 319 321 324 325 325 325 326 326 324 326 326 329 328 329 325 327 330 333 334 337 340 341
315 314 314 311 305 302 306 312 312 312 312 306 303 303 309 309 310 312 313 312 312 311 313 314 316 315 320 322 318 318 319 321 324 326 326 326 327 329 328 326 327 330 343 343 336 338 344
315 314 314 311 305 302 306 311 312 312 312 308 304 305 311 317 311 312 310 310 311 312 311 311 311 314 319 314 320 323 321 321 321 322 322 328 328 328 327 329 329 340 337 334 337 341 342
315 315 314 311 304 304 308 311 312 312 312 309 306 305 309 315 311 312 312 312 310 310 310 311 312 315 312 323 328 329 327 329 329 326 328 324 328 330 329 328 329 341 335 332 334 339 337
315 314 314 310 302 304 306 310 311 312 312 311 308 305 306 311 315 311 311 310 313 312 310 311 311 310 321 326 330 332 331 333 333 332 328 328 329 331 329 329 328 341 333 335 335 338 333
315 314 314 309 302 304 305 310 311 312 313 312 308 305 305 310 309 309 312 312 308 308 310 310 311 311 319 327 328 329 332 328 333 333 334 332 335 334 333 331 338 339 337 336 341 339 337
314 314 313 309 302 304 306 310 310 311 313 312 308 306 304 307 308 306 308 310 309 309 313 311 312 313 315 329 330 329 332 330 331 328 333 333 336 337 336 339 335 334 337 341 339 338 337
313 314 313 307 301 304 306 309 310 311 313 312 308 305 305 305 309 305 307 307 308 309 310 309 310 311 311 327 326 327 333 331 329 329 329 333 331 335 337 339 335 332 335 334 335 337 338
Wind_Speed
17 18 19 19 20 21 23 24 25 26 28 29 31 31 32 32 33 34 33 34 31 26 26 24 19 14 5 1 8 8 5 5 21 17 10 9 9 5 7 4 6 13 13 8 11 6 8
16 17 18 19 20 22 23 24 26 27 28 29 31 33 33 33 35 35 33 34 27 27 24 21 14 8 3 7 4 4 2 10 7 9 6 9 7 7 6 6 6 5 11 13 11 10 9
17 18 19 20 21 22 24 25 26 27 29 30 31 34 34 34 36 36 37 28 30 22 17 16 9 6 4 13 2 2 3 3 7 10 7 9 3 6 1 4 3 5 9 13 14 12 10
17 18 20 21 22 23 24 25 26 28 29 31 32 34 35 35 37 37 34 30 27 9 10 10 2 4 6 3 8 10 9 3 6 12 14 7 6 4 5 3 2 4 2 10 6 4 4
18 20 21 22 22 24 24 25 26 28 29 30 32 33 34 35 35 37 28 27 13 4 7 6 2 0 5 7 1 2 3 5 9 1 4 3 7 4 5 7 6 4 11 8 8 3 3
18 19 20 22 22 24 26 25 25 26 28 28 30 32 33 35 36 32 27 17 5 4 5 3 1 3 4 4 7 13 16 11 3 1 4 6 4 6 4 8 10 9 5 3 5 5 12
19 20 22 22 23 24 25 26 25 25 26 27 29 31 34 36 39 20 25 5 5 1 6 3 5 5 9 13 11 5 3 4 2 2 5 7 7 12 17 18 14 6 7 8 9 10 9
19 20 21 22 23 21 23 26 27 26 25 28 29 32 35 37 37 13 10 5 5 3 6 2 5 7 10 6 5 3 4 5 5 8 4 5 14 12 14 13 13 12 11 11 9 5 6
18 19 21 25 23 23 23 24 24 26 28 28 28 31 36 35 22 10 5 10 7 1 3 5 3 4 6 2 4 5 4 2 6 5 10 15 9 13 13 15 12 13 12 14 9 9 7
18 20 22 24 22 21 22 23 25 26 28 27 27 31 35 39 5 17 2 1 18 6 2 7 3 3 5 4 5 6 5 4 3 8 11 10 10 13 14 17 14 17 13 14 10 9 11
19 19 19 20 22 21 21 21 23 26 27 25 27 30 35 33 16 5 2 13 7 3 0 10 4 5 13 2 9 3 2 1 7 6 4 6 8 13 17 19 17 15 14 13 14 12 6
17 16 16 17 18 21 23 23 23 24 26 26 30 34 37 12 10 6 10 11 4 2 1 4 5 8 11 3 3 7 4 2 1 3 5 13 3 5 14 12 16 5 7 2 1 5 9
14 14 15 16 18 20 21 23 24 24 26 28 33 34 22 8 2 11 12 2 1 1 2 7 6 9 6 5 6 7 7 7 9 7 8 8 7 10 13 13 6 10 7 5 6 6 11
13 15 16 17 19 20 21 23 26 25 26 31 34 21 6 7 11 8 3 1 1 1 3 2 5 7 3 8 4 8 8 8 3 9 8 5 6 5 12 20 16 13 12 7 9 7 9
15 16 16 17 17 18 19 21 24 24 27 35 29 9 3 12 6 6 0 2 2 1 2 7 5 4 5 3 4 7 6 4 5 10 7 5 6 10 10 11 15 6 7 13 11 1 6
14 15 15 16 16 17 17 19 22 23 27 30 18 7 7 4 7 3 2 2 1 3 2 1 2 1 4 7 7 7 5 3 9 8 9 2 7 5 5 3 6 10 8 4 4 8 11
14 15 14 14 15 16 14 17 19 22 27 20 5 1 5 9 6 2 3 1 3 5 5 4 1 2 2 3 4 4 4 8 11 15 10 6 2 9 7 3 6 4 5 4 2 4 7
14 15 14 13 13 14 13 14 16 20 26 14 4 1 8 6 1 2 2 1 3 3 1 2 2 3 2 2 4 3 4 4 13 13 11 4 4 6 15 14 7 6 5 6 7 7 7
15 15 15 13 12 13 11 11 13 17 22 8 3 3 5 4 2 2 1 2 2 3 3 3 2 1 1 2 4 4 4 9 12 13 7 7 2 7 11 1 1 4 6 8 7 2 15
16 16 15 13 11 12 8 9 11 13 16 7 2 1 2 3 2 2 1 1 3 3 3 4 3 2 3 3 3 5 6 7 16 13 14 3 4 6 7 9 5 12 11 5 3 5 12
15 16 15 13 12 11 7 6 8 10 13 5 3 2 2 1 2 1 1 1 2 3 1 3 2 3 4 4 6 5 9 13 15 12 5 5 8 4 10 12 9 14 16 7 6 3 4
16 15 14 13 10 10 6 4 5 7 10 3 2 1 1 1 1 2 1 3 2 2 3 1 1 10 7 6 8 14 16 13 10 10 6 5 5 10 15 10 7 12 6 9 5 10 6
16 16 14 13 10 10 6 4 4 5 6 2 1 1 2 2 0 2 1 2 3 3 5 8 5 8 11 7 10 19 20 20 17 15 9 5 4 5 12 9 11 9 3 3 1 7 7
15 15 14 13 11 10 7 6 5 4 2 1 2 1 1 1 3 3 2 2 6 5 5 7 11 5 3 16 17 15 12 12 11 13 12 6 4 4 8 8 11 4 4 3 3 6 11
15 15 14 13 11 9 8 7 7 6 3 1 2 1 1 2 3 6 8 7 6 6 7 10 11 5 12 8 6 8 8 2 4 4 4 6 3 4 5 6 5 8 2 2 2 2 6
16 16 14 13 11 10 7 9 9 8 6 3 3 3 1 2 4 3 2 2 4 4 4 5 5 7 4 2 2 3 3 4 4 7 3 4 3 5 2 5 6 6 7 3 5 5 8
16 16 15 13 12 11 7 13 11 10 9 6 2 7 1 3 2 5 5 2 3 1 3 4 6 4 3 2 2 2 2 2 4 6 5 4 2 3 6 5 0 7 2 3 3 1 3
17 16 16 14 13 12 9 15 11 12 12 8 3 8 3 2 6 8 5 6 3 3 3 3 4 2 2 0 1 1 2 2 3 3 4 3 4 3 3 3 3 9 3 4 3 3 4
17 18 16 14 13 13 11 16 14 14 13 11 3 6 10 4 5 5 13 19 20 14 5 2 2 2 2 1 1 1 3 2 1 3 2 1 2 3 3 4 2 4 3 5 4 3 4
Wind_Direction
27 23 20 18 14 12 9 6 4 2 0 359 356 352 350 349 347 344 341 337 332 329 318 313 310 308 328 344 251 287 330 155 172 184 183 179 189 207 251 254 276 242 262 264 265 215 264
15 12 10 7 5 2 360 358 357 356 355 354 353 351 347 345 344 341 338 334 330 324 318 311 300 274 139 266 229 271 150 127 179 191 210 189 215 214 256 247 238 297 304 283 293 286 259
2 0 358 357 356 354 353 352 351 351 351 349 349 348 346 344 342 339 335 331 328 322 325 320 303 180 171 246 232 154 172 292 258 213 211 221 247 214 205 251 236 257 281 296 284 298 291
352 351 350 348 348 347 347 346 346 345 346 346 347 346 344 343 342 337 333 329 326 323 1 2 103 132 246 292 294 296 276 249 294 255 241 265 172 222 209 258 275 286 231 256 271 300 298
345 344 343 344 343 341 342 342 343 343 343 344 345 343 341 341 341 337 331 328 323 300 337 14 30 129 267 309 259 305 201 330 309 340 197 130 166 201 172 220 251 202 262 248 296 320 315
336 337 340 342 339 339 337 340 337 339 341 342 343 342 340 340 342 341 337 327 337 340 339 336 334 268 246 313 295 287 278 266 236 65 111 189 199 207 185 206 238 241 219 189 282 301 302
333 337 337 335 333 334 334 334 331 333 338 338 339 341 339 340 343 348 349 1 360 34 35 310 304 273 280 308 290 242 235 151 162 175 228 183 209 212 213 224 249 240 261 279 271 269 286
327 328 326 323 321 323 328 329 331 333 334 335 338 340 339 339 342 352 10 67 82 310 312 286 257 266 275 290 301 333 157 190 183 220 178 194 236 225 232 247 233 244 263 269 280 249 286
323 324 325 325 327 325 325 325 331 330 331 331 335 339 338 338 342 358 41 119 4 9 281 306 238 272 301 209 306 279 201 191 223 215 220 242 250 224 219 234 237 239 249 265 264 292 247
316 321 325 332 334 333 333 336 333 331 331 331 335 338 337 336 345 340 30 102 335 167 340 358 10 40 309 292 271 230 219 258 226 241 235 241 226 219 224 238 237 256 239 260 262 277 293
314 320 326 333 343 340 334 332 329 330 329 332 335 335 333 334 298 296 302 329 342 156 195 340 360 311 319 334 322 50 313 144 258 256 207 244 215 209 223 228 222 252 256 266 275 266 271
309 315 323 332 336 338 338 334 334 325 327 333 333 332 328 329 299 282 318 328 156 257 76 9 329 347 350 356 309 308 345 8 297 291 249 264 292 275 246 226 228 214 224 209 193 250 252
303 309 317 324 330 333 336 337 334 330 332 336 333 331 323 312 290 312 329 221 246 1 328 356 332 336 329 317 331 0 341 4 31 339 336 307 256 250 238 247 163 185 186 239 233 213 256
306 309 315 321 326 331 334 335 335 336 341 338 334 338 347 349 320 306 320 148 100 37 353 334 324 322 350 350 333 332 347 13 63 13 308 313 299 212 209 220 226 202 209 235 257 244 261
310 314 316 318 321 324 328 332 335 338 342 338 339 352 28 347 13 350 265 79 92 173 312 327 324 17 353 354 339 345 342 308 352 10 352 303 284 302 249 230 195 171 202 236 247 187 253
309 312 317 319 322 324 327 332 332 342 344 339 338 335 351 351 337 344 74 108 229 235 306 305 356 333 347 335 335 342 330 347 360 1 347 290 294 316 317 298 236 209 158 199 207 231 260
301 303 311 310 313 319 326 333 338 345 346 342 348 234 355 338 339 50 77 81 283 266 235 206 257 294 308 308 309 311 323 316 7 342 339 317 259 310 307 300 318 188 207 208 186 184 253
285 297 305 311 317 318 329 340 338 350 352 350 342 232 346 349 22 22 82 310 324 304 342 256 232 244 273 287 298 288 300 293 339 345 327 335 298 304 307 296 304 276 309 270 240 201 227
285 297 309 313 319 318 329 340 339 353 360 348 6 302 346 356 126 83 348 300 281 317 318 327 286 290 29 283 297 274 308 312 315 342 334 330 260 311 318 113 23 351 18 344 298 241 236
279 292 309 310 314 314 327 337 336 355 357 6 324 301 26 55 25 83 20 33 322 309 280 325 284 329 337 277 222 288 281 306 314 311 305 261 264 245 282 286 302 294 313 341 269 282 272
276 283 296 302 309 315 325 326 328 346 352 6 6 66 29 40 86 52 252 310 286 320 334 327 205 30 314 271 281 261 287 302 300 320 327 350 287 248 262 269 277 274 292 309 314 340 270
274 279 286 288 290 296 298 300 310 338 349 40 350 286 145 110 286 253 194 194 230 305 267 221 324 335 325 255 274 297 301 296 284 299 315 357 291 308 291 295 293 285 323 331 348 4 349
266 270 279 279 284 294 275 248 269 316 358 54 88 83 281 78 142 241 219 188 180 355 235 256 319 333 301 306 307 285 279 272 263 273 290 292 285 275 283 292 300 280 307 328 50 32 359
265 264 270 273 275 280 251 224 245 262 316 118 144 134 270 268 255 235 231 243 267 283 270 289 295 247 295 321 296 271 263 264 255 250 239 264 263 261 279 299 276 100 115 29 335 96 75
265 261 266 264 264 264 231 206 230 230 250 212 161 165 193 258 266 267 251 251 272 269 253 263 277 279 326 305 305 312 315 271 39 137 140 217 279 268 255 258 310 186 112 222 272 118 62
261 257 260 256 253 249 238 206 220 228 221 229 212 176 203 273 220 243 249 250 283 282 274 244 291 316 308 278 288 287 312 327 324 342 143 148 223 244 250 256 270 76 135 165 284 357 309
258 251 250 249 246 241 241 202 209 223 221 209 220 197 162 250 240 196 225 221 168 207 272 294 336 325 318 327 286 297 305 319 321 322 346 325 355 267 260 258 212 54 32 220 303 314 226
257 248 245 241 240 239 236 195 203 214 221 206 211 203 204 245 266 212 217 219 215 222 249 352 280 173 283 289 306 355 273 17 289 288 329 314 328 328 282 259 223 17 112 245 38 41 36
254 247 240 234 237 232 231 191 203 208 216 206 212 215 217 239 284 245 250 250 240 238 242 224 333 314 291 296 250 273 258 243 311 329 186 294 311 303 256 331 1 341 320 319 290 21 96